Tracking 23762 objects as of 22-Oct-2021
HD Live streaming from Space Station
objects crossing your sky now

COSMOS 2222

Track COSMOS 2222 now!
COSMOS 2222 is classified as:


NORAD ID: 22238
Int'l Code: 1992-081A
Perigee: 736.9 km
Apogee: 39,620.4 km
Inclination: 62.6 °
Period: 717.5 minutes
Semi major axis: 26549 km
RCS: 13.6381 m2 (large)
Launch date: November 25, 1992
Source: Commonwealth of Independent States (former USSR) (CIS)
Launch site: PLESETSK MISSILE AND SPACE COMPLEX (PKMTR)
aabbcc
Your satellite tracking list
Your tracking list is empty




NASA's NSSDC Master Catalog

Two Line Element Set (TLE):
1 22238U 92081A   21294.87288653  .00001053  00000-0 -47000-2 0  9995
2 22238  62.5963 334.4995 7322803 202.9540  91.1587  2.00684865211783
Source of the keplerian elements: AFSPC